TimeCST,TemperatureF,Dew PointF,Humidity,Sea Level PressureIn,VisibilityMPH,Wind Direction,Wind SpeedMPH,Gust SpeedMPH,PrecipitationIn,Events,Conditions,WindDirDegrees,DateUTC
12:00 AM,70,59,59,29.86,12,East,8.1,,,,Scattered Clouds,80,2013-01-04 06:00:00
12:00 AM,69.8,59.0,68,30.02,6.2,East,8.1,-,N/A,,Partly Cloudy,80,2013-01-04 06:00:00
1:00 AM,69.8,57.2,64,30.00,6.2,East,10.4,-,N/A,,Partly Cloudy,80,2013-01-04 07:00:00
2:00 AM,69.8,57.2,64,29.99,6.2,East,10.4,-,N/A,,Partly Cloudy,90,2013-01-04 08:00:00
3:00 AM,69,58,60,29.83,12,ESE,8.1,,,,Scattered Clouds,110,2013-01-04 09:00:00
3:00 AM,69.8,59.0,68,29.98,6.2,ESE,8.1,-,N/A,,Partly Cloudy,110,2013-01-04 09:00:00
4:00 AM,68.0,57.2,68,29.99,6.2,ENE,9.2,-,N/A,,Partly Cloudy,70,2013-01-04 10:00:00
5:00 AM,68.0,55.4,64,30.00,6.2,ESE,9.2,-,N/A,,Partly Cloudy,110,2013-01-04 11:00:00
6:00 AM,68,55,55,29.89,12,ESE,11.5,,,,Scattered Clouds,110,2013-01-04 12:00:00
6:00 AM,68.0,55.4,64,30.02,6.2,ESE,11.5,23.0,N/A,,Partly Cloudy,110,2013-01-04 12:00:00
7:00 AM,69.8,53.6,56,30.04,6.2,ESE,15.0,-,N/A,,Partly Cloudy,110,2013-01-04 13:00:00
8:00 AM,73.4,53.6,50,30.06,6.2,ESE,12.7,-,N/A,,Partly Cloudy,110,2013-01-04 14:00:00
9:00 AM,76,54,37,29.90,12,ESE,15.0,,,,Clear,110,2013-01-04 15:00:00
9:00 AM,77.0,53.6,44,30.07,-9999.0,ESE,15.0,-,N/A,,Clear,110,2013-01-04 15:00:00
10:00 AM,78.8,53.6,42,30.05,-9999.0,ESE,15.0,-,N/A,,Clear,110,2013-01-04 16:00:00
11:00 AM,84.2,53.6,35,30.03,-9999.0,ESE,13.8,-,N/A,,Clear,110,2013-01-04 17:00:00
12:00 PM,84,52,23,29.89,12,ESE,11.5,,,,Clear,110,2013-01-04 18:00:00
12:00 PM,84.2,51.8,33,30.00,-9999.0,ESE,11.5,-,N/A,,Clear,110,2013-01-04 18:00:00
1:00 PM,82.4,55.4,39,29.98,6.2,ESE,11.5,-,N/A,,Scattered Clouds,110,2013-01-04 19:00:00
2:00 PM,82.4,57.2,42,29.96,6.2,East,13.8,-,N/A,,Mostly Cloudy,80,2013-01-04 20:00:00
3:00 PM,81,61,40,29.77,12,East,10.4,,,,Scattered Clouds,80,2013-01-04 21:00:00
3:00 PM,80.6,60.8,51,29.95,6.2,East,10.4,-,N/A,,Mostly Cloudy,80,2013-01-04 21:00:00
4:00 PM,78.8,60.8,54,29.96,6.2,East,11.5,-,N/A,,Scattered Clouds,80,2013-01-04 22:00:00
5:00 PM,73.4,60.8,65,29.97,6.2,East,12.7,-,N/A,,Mostly Cloudy,80,2013-01-04 23:00:00
6:00 PM,72,60,56,29.83,12,East,9.2,,,,Scattered Clouds,90,2013-01-05 00:00:00
6:00 PM,71.6,59.0,64,29.97,6.2,East,9.2,-,N/A,,Partly Cloudy,90,2013-01-05 00:00:00
7:00 PM,71.6,59.0,64,29.98,6.2,East,15.0,23.0,N/A,,Partly Cloudy,80,2013-01-05 01:00:00
8:00 PM,-9999,-9999,N/A,30.01,6.2,ENE,17.3,29.9,N/A,,Partly Cloudy,70,2013-01-05 02:00:00
9:00 PM,71,55,46,29.87,12,East,12.7,,,,Scattered Clouds,90,2013-01-05 03:00:00
9:00 PM,71.6,55.4,57,30.03,6.2,East,12.7,24.2,N/A,,Scattered Clouds,90,2013-01-05 03:00:00
10:00 PM,69.8,55.4,60,30.04,6.2,ESE,11.5,23.0,N/A,,Scattered Clouds,110,2013-01-05 04:00:00
11:00 PM,69.8,55.4,60,30.03,-9999.0,East,12.7,-,N/A,,Clear,80,2013-01-05 05:00:00